Time,TemperatureF,DewpointF,PressureIn,WindDirection,WindDirectionDegrees,WindSpeedMPH,WindSpeedGustMPH,Humidity,HourlyPrecipIn,Conditions,Clouds,dailyrainin,SoftwareType,DateUTC
2013-06-29 00:01:00,63.0,61.9,-100.00,NW,311,0.0,2.0,96,0.00,,,0.91,meteohub,2013-06-29 04:01:00,
2013-06-29 00:03:00,63.0,61.9,-100.00,East,93,0.0,2.0,96,0.00,,,0.91,meteohub,2013-06-29 04:03:00,
2013-06-29 00:09:00,63.0,61.9,-100.00,SW,219,0.0,2.0,96,0.00,,,0.00,meteohub,2013-06-29 04:09:00,
2013-06-29 00:14:00,62.8,61.7,-100.00,East,99,1.0,2.0,96,0.00,,,0.00,meteohub,2013-06-29 04:14:00,
2013-06-29 00:19:00,62.8,61.7,-100.00,WNW,283,0.0,2.0,96,0.00,,,0.00,meteohub,2013-06-29 04:19:00,
2013-06-29 00:24:00,62.8,61.7,-100.00,SE,146,0.0,2.0,96,0.00,,,0.00,meteohub,2013-06-29 04:24:00,
2013-06-29 00:29:00,62.8,61.7,-100.00,SE,127,0.0,2.0,96,0.00,,,0.00,meteohub,2013-06-29 04:29:00,
2013-06-29 00:34:00,62.8,61.7,-100.00,West,273,2.0,2.0,96,0.00,,,0.00,meteohub,2013-06-29 04:34:00,
2013-06-29 00:39:00,62.8,61.7,-100.00,NNE,18,0.0,2.0,96,0.00,,,0.00,meteohub,2013-06-29 04:39:00,
2013-06-29 00:44:00,62.6,61.5,-100.00,East,101,0.0,2.0,96,0.00,,,0.00,meteohub,2013-06-29 04:44:00,
2013-06-29 00:49:00,62.6,61.5,-100.00,NE,51,0.0,2.0,96,0.00,,,0.00,meteohub,2013-06-29 04:49:00,
2013-06-29 00:54:00,62.6,61.5,-100.00,NNW,342,0.0,2.0,96,0.00,,,0.00,meteohub,2013-06-29 04:54:00,
2013-06-29 00:59:00,62.6,61.5,-100.00,East,80,0.0,2.0,96,0.00,,,0.00,meteohub,2013-06-29 04:59:00,
2013-06-29 01:04:00,62.4,61.3,-100.00,SSW,200,0.0,1.0,96,0.00,,,0.00,meteohub,2013-06-29 05:04:00,
2013-06-29 01:09:00,62.4,61.3,-100.00,SSW,201,0.0,1.0,96,0.00,,,0.00,meteohub,2013-06-29 05:09:00,
2013-06-29 01:14:00,62.4,61.3,-100.00,SE,140,1.0,1.0,96,0.00,,,0.00,meteohub,2013-06-29 05:14:00,
2013-06-29 01:19:00,62.4,61.5,-100.00,SE,124,0.0,1.0,97,0.00,,,0.00,meteohub,2013-06-29 05:19:00,
2013-06-29 01:24:00,62.4,61.5,-100.00,SE,129,0.0,2.0,97,0.00,,,0.00,meteohub,2013-06-29 05:24:00,
2013-06-29 01:29:00,62.4,61.5,-100.00,SE,144,0.0,2.0,97,0.00,,,0.00,meteohub,2013-06-29 05:29:00,
2013-06-29 01:34:00,62.4,61.5,-100.00,WSW,252,0.0,3.0,97,0.00,,,0.00,meteohub,2013-06-29 05:34:00,
2013-06-29 01:39:00,62.4,61.5,-100.00,North,10,0.0,3.0,97,0.00,,,0.00,meteohub,2013-06-29 05:39:00,
2013-06-29 01:44:00,62.4,61.5,-100.00,WNW,295,1.0,3.0,97,0.00,,,0.00,meteohub,2013-06-29 05:44:00,
2013-06-29 01:49:00,62.4,61.5,-100.00,West,276,0.0,2.0,97,0.00,,,0.00,meteohub,2013-06-29 05:49:00,
2013-06-29 01:54:00,62.4,61.5,-100.00,SSE,150,0.0,2.0,97,0.00,,,0.00,meteohub,2013-06-29 05:54:00,
2013-06-29 01:59:00,62.4,61.5,-100.00,SSE,167,0.0,2.0,97,0.00,,,0.00,meteohub,2013-06-29 05:59:00,
2013-06-29 02:04:00,62.6,61.7,-100.00,SE,139,0.0,3.0,97,0.00,,,0.00,meteohub,2013-06-29 06:04:00,
2013-06-29 02:09:00,62.4,61.5,-100.00,SW,214,0.0,3.0,97,0.00,,,0.00,meteohub,2013-06-29 06:09:00,
2013-06-29 02:14:00,62.4,61.5,-100.00,SW,217,0.0,3.0,97,0.00,,,0.00,meteohub,2013-06-29 06:14:00,
2013-06-29 02:19:00,62.6,61.7,-100.00,SE,139,0.0,2.0,97,0.00,,,0.00,meteohub,2013-06-29 06:19:00,
2013-06-29 02:24:00,62.6,61.7,-100.00,SE,146,0.0,2.0,97,0.00,,,0.00,meteohub,2013-06-29 06:24:00,
2013-06-29 02:29:00,62.6,61.7,-100.00,SSE,160,0.0,2.0,97,0.00,,,0.00,meteohub,2013-06-29 06:29:00,
2013-06-29 02:34:00,62.6,61.7,-100.00,SSW,201,0.0,3.0,97,0.00,,,0.00,meteohub,2013-06-29 06:34:00,
2013-06-29 02:39:00,62.4,61.5,-100.00,SE,141,0.0,2.0,97,0.00,,,0.00,meteohub,2013-06-29 06:39:00,
2013-06-29 02:45:00,62.4,61.5,-100.00,NE,46,1.0,2.0,97,0.00,,,0.00,meteohub,2013-06-29 06:45:00,
2013-06-29 02:50:00,62.4,61.5,-100.00,NW,310,0.0,3.0,97,0.00,,,0.00,meteohub,2013-06-29 06:50:00,
2013-06-29 02:55:00,62.6,61.7,-100.00,ESE,117,0.0,3.0,97,0.00,,,0.00,meteohub,2013-06-29 06:55:00,
2013-06-29 02:59:00,62.6,61.7,-100.00,NE,56,0.0,3.0,97,0.00,,,0.00,meteohub,2013-06-29 06:59:00,
2013-06-29 03:05:00,62.6,61.7,-100.00,NE,56,0.0,1.0,97,0.00,,,0.00,meteohub,2013-06-29 07:05:00,
2013-06-29 03:10:00,62.6,61.7,-100.00,NE,56,0.0,1.0,97,0.00,,,0.00,meteohub,2013-06-29 07:10:00,
2013-06-29 03:15:00,62.6,61.7,-100.00,NE,56,0.0,1.0,97,0.00,,,0.00,meteohub,2013-06-29 07:15:00,
2013-06-29 03:20:00,62.8,61.9,-100.00,NE,56,0.0,1.0,97,0.00,,,0.00,meteohub,2013-06-29 07:20:00,
2013-06-29 03:25:00,62.6,61.7,-100.00,ENE,75,0.0,1.0,97,0.00,,,0.00,meteohub,2013-06-29 07:25:00,
2013-06-29 03:30:00,62.6,61.7,-100.00,ENE,75,0.0,1.0,97,0.00,,,0.00,meteohub,2013-06-29 07:30:00,
2013-06-29 03:35:00,62.6,61.7,-100.00,NNW,333,0.0,1.0,97,0.00,,,0.00,meteohub,2013-06-29 07:35:00,
2013-06-29 03:40:00,62.6,61.7,-100.00,NNE,32,0.0,1.0,97,0.00,,,0.00,meteohub,2013-06-29 07:40:00,
2013-06-29 03:45:00,62.6,61.7,-100.00,NNE,30,0.0,1.0,97,0.00,,,0.00,meteohub,2013-06-29 07:45:00,
2013-06-29 03:50:00,62.6,61.7,-100.00,ESE,107,0.0,1.0,97,0.00,,,0.00,meteohub,2013-06-29 07:50:00,
2013-06-29 03:55:00,62.6,61.7,-100.00,North,1,0.0,2.0,97,0.00,,,0.00,meteohub,2013-06-29 07:55:00,
2013-06-29 04:00:00,62.8,61.9,-100.00,NNE,13,0.0,2.0,97,0.00,,,0.00,meteohub,2013-06-29 08:00:00,
2013-06-29 04:05:00,62.8,61.9,-100.00,NNE,23,1.0,2.0,97,0.00,,,0.00,meteohub,2013-06-29 08:05:00,
2013-06-29 04:10:00,62.8,61.9,-100.00,WNW,292,0.0,3.0,97,0.00,,,0.00,meteohub,2013-06-29 08:10:00,
2013-06-29 04:15:00,62.8,61.9,-100.00,WNW,300,1.0,3.0,97,0.00,,,0.00,meteohub,2013-06-29 08:15:00,
2013-06-29 04:20:00,62.8,61.9,-100.00,West,275,0.0,4.0,97,0.00,,,0.00,meteohub,2013-06-29 08:20:00,
2013-06-29 04:25:00,62.8,61.9,-100.00,West,266,1.0,4.0,97,0.01,,,0.01,meteohub,2013-06-29 08:25:00,
2013-06-29 04:30:00,62.8,61.9,-100.00,NNE,24,1.0,2.0,97,0.01,,,0.01,meteohub,2013-06-29 08:30:00,
2013-06-29 04:35:00,62.6,61.7,-100.00,NNW,331,0.0,2.0,97,0.01,,,0.01,meteohub,2013-06-29 08:35:00,
2013-06-29 04:40:00,62.8,61.9,-100.00,NW,318,0.0,2.0,97,0.01,,,0.01,meteohub,2013-06-29 08:40:00,
2013-06-29 04:45:00,62.6,61.7,-100.00,NW,321,0.0,2.0,97,0.01,,,0.01,meteohub,2013-06-29 08:45:00,
2013-06-29 04:50:00,62.6,61.7,-100.00,WNW,288,0.0,2.0,97,0.01,,,0.01,meteohub,2013-06-29 08:50:00,
2013-06-29 04:55:00,62.6,61.7,-100.00,WNW,300,1.0,1.0,97,0.02,,,0.02,meteohub,2013-06-29 08:55:00,
2013-06-29 05:00:00,62.6,61.7,-100.00,WNW,290,1.0,3.0,97,0.02,,,0.02,meteohub,2013-06-29 09:00:00,
2013-06-29 05:05:00,62.6,61.7,-100.00,NW,325,0.0,3.0,97,0.02,,,0.02,meteohub,2013-06-29 09:05:00,
2013-06-29 05:10:00,62.6,61.7,-100.00,ENE,69,0.0,4.0,97,0.02,,,0.02,meteohub,2013-06-29 09:10:00,
2013-06-29 05:15:00,62.4,61.5,-100.00,SW,219,0.0,4.0,97,0.02,,,0.02,meteohub,2013-06-29 09:15:00,
2013-06-29 05:20:00,62.4,61.5,-100.00,NW,311,0.0,4.0,97,0.02,,,0.03,meteohub,2013-06-29 09:20:00,
2013-06-29 05:25:00,62.4,61.5,-100.00,ESE,115,0.0,2.0,97,0.02,,,0.03,meteohub,2013-06-29 09:25:00,
2013-06-29 05:30:00,62.4,61.5,-100.00,SSW,213,0.0,2.0,97,0.02,,,0.03,meteohub,2013-06-29 09:30:00,
2013-06-29 05:35:00,62.4,61.5,-100.00,WNW,293,1.0,2.0,97,0.02,,,0.03,meteohub,2013-06-29 09:35:00,
2013-06-29 05:40:00,62.2,61.3,-100.00,SSE,148,0.0,2.0,97,0.03,,,0.04,meteohub,2013-06-29 09:40:00,
2013-06-29 05:45:00,62.2,61.3,-100.00,NE,37,0.0,2.0,97,0.03,,,0.04,meteohub,2013-06-29 09:45:00,
2013-06-29 05:51:00,62.2,61.3,-100.00,ENE,77,0.0,2.0,97,0.02,,,0.04,meteohub,2013-06-29 09:51:00,
2013-06-29 05:56:00,62.1,61.2,-100.00,NNW,330,0.0,2.0,97,0.02,,,0.04,meteohub,2013-06-29 09:56:00,
2013-06-29 06:01:00,62.2,61.3,-100.00,NW,307,1.0,2.0,97,0.02,,,0.04,meteohub,2013-06-29 10:01:00,
2013-06-29 06:06:00,62.2,61.3,-100.00,NW,304,0.0,2.0,97,0.02,,,0.04,meteohub,2013-06-29 10:06:00,
2013-06-29 06:11:00,62.2,61.3,-100.00,WNW,288,0.0,2.0,97,0.02,,,0.04,meteohub,2013-06-29 10:11:00,
2013-06-29 06:16:00,62.2,61.3,-100.00,WNW,288,0.0,2.0,97,0.01,,,0.04,meteohub,2013-06-29 10:16:00,
2013-06-29 06:21:00,62.2,61.3,-100.00,East,94,1.0,1.0,97,0.01,,,0.04,meteohub,2013-06-29 10:21:00,
2013-06-29 06:26:00,62.4,61.5,-100.00,West,273,0.0,1.0,97,0.01,,,0.04,meteohub,2013-06-29 10:26:00,
2013-06-29 06:31:00,62.4,61.5,-100.00,NW,304,0.0,1.0,97,0.01,,,0.04,meteohub,2013-06-29 10:31:00,
2013-06-29 06:36:00,62.4,61.5,-100.00,NNW,331,0.0,1.0,97,0.00,,,0.04,meteohub,2013-06-29 10:36:00,
2013-06-29 06:41:00,62.6,61.7,-100.00,WNW,293,0.0,2.0,97,0.00,,,0.04,meteohub,2013-06-29 10:41:00,
2013-06-29 06:46:00,62.6,61.7,-100.00,WSW,249,0.0,2.0,97,0.00,,,0.04,meteohub,2013-06-29 10:46:00,
2013-06-29 06:51:00,62.8,61.9,-100.00,SW,217,1.0,2.0,97,0.00,,,0.04,meteohub,2013-06-29 10:51:00,
2013-06-29 06:56:00,62.8,61.9,-100.00,WSW,240,0.0,3.0,97,0.00,,,0.04,meteohub,2013-06-29 10:56:00,
2013-06-29 07:01:00,62.8,61.7,-100.00,East,84,0.0,3.0,96,0.00,,,0.04,meteohub,2013-06-29 11:01:00,
2013-06-29 07:06:00,63.0,62.1,-100.00,WSW,255,1.0,3.0,97,0.00,,,0.04,meteohub,2013-06-29 11:06:00,
2013-06-29 07:11:00,63.0,61.9,-100.00,NNW,334,0.0,2.0,96,0.00,,,0.04,meteohub,2013-06-29 11:11:00,
2013-06-29 07:16:00,63.0,61.9,-100.00,SSE,153,0.0,3.0,96,0.00,,,0.04,meteohub,2013-06-29 11:16:00,
2013-06-29 07:21:00,63.1,62.1,-100.00,SE,144,0.0,3.0,96,0.00,,,0.04,meteohub,2013-06-29 11:21:00,
2013-06-29 07:26:00,63.1,61.7,-100.00,NNW,347,0.0,3.0,95,0.00,,,0.04,meteohub,2013-06-29 11:26:00,
2013-06-29 07:31:00,63.3,61.9,-100.00,WSW,255,1.0,2.0,95,0.00,,,0.04,meteohub,2013-06-29 11:31:00,
2013-06-29 07:36:00,63.5,62.1,-100.00,WNW,300,0.0,3.0,95,0.00,,,0.04,meteohub,2013-06-29 11:36:00,
2013-06-29 07:41:00,63.9,62.4,-100.00,ENE,65,0.0,3.0,95,0.00,,,0.04,meteohub,2013-06-29 11:41:00,
2013-06-29 07:46:00,64.0,62.2,-100.00,North,2,0.0,3.0,94,0.00,,,0.04,meteohub,2013-06-29 11:46:00,
2013-06-29 07:51:00,64.4,62.6,-100.00,North,359,1.0,3.0,94,0.00,,,0.04,meteohub,2013-06-29 11:51:00,
2013-06-29 07:56:00,64.8,63.0,-100.00,WNW,295,0.0,3.0,94,0.00,,,0.04,meteohub,2013-06-29 11:56:00,
2013-06-29 08:01:00,65.1,63.0,-100.00,WNW,290,0.0,3.0,93,0.00,,,0.04,meteohub,2013-06-29 12:01:00,
2013-06-29 08:06:00,65.1,62.8,-100.00,ESE,121,0.0,2.0,92,0.00,,,0.04,meteohub,2013-06-29 12:06:00,
2013-06-29 08:11:00,65.3,63.1,-100.00,NNW,346,0.0,2.0,93,0.00,,,0.04,meteohub,2013-06-29 12:11:00,
2013-06-29 08:16:00,65.5,63.3,-100.00,NW,318,0.0,2.0,93,0.00,,,0.04,meteohub,2013-06-29 12:16:00,
2013-06-29 08:21:00,65.7,63.3,-100.00,ENE,75,1.0,2.0,92,0.00,,,0.04,meteohub,2013-06-29 12:21:00,
2013-06-29 08:26:00,65.5,62.8,-100.00,WNW,300,0.0,3.0,91,0.00,,,0.04,meteohub,2013-06-29 12:26:00,
2013-06-29 08:31:00,65.5,63.1,-100.00,NW,308,0.0,3.0,92,0.00,,,0.04,meteohub,2013-06-29 12:31:00,
2013-06-29 08:36:00,65.5,62.8,-100.00,SW,216,2.0,3.0,91,0.00,,,0.04,meteohub,2013-06-29 12:36:00,
2013-06-29 08:41:00,65.1,62.4,-100.00,NW,307,2.0,5.0,91,0.00,,,0.04,meteohub,2013-06-29 12:41:00,
2013-06-29 08:46:00,65.1,62.8,-100.00,NW,312,1.0,5.0,92,0.00,,,0.04,meteohub,2013-06-29 12:46:00,
2013-06-29 08:51:00,65.5,63.3,-100.00,East,80,0.0,5.0,93,0.00,,,0.04,meteohub,2013-06-29 12:51:00,
2013-06-29 08:56:00,65.7,63.5,-100.00,WNW,288,0.0,4.0,93,0.00,,,0.04,meteohub,2013-06-29 12:56:00,
2013-06-29 09:01:00,66.0,63.9,-100.00,NW,311,1.0,2.0,93,0.00,,,0.04,meteohub,2013-06-29 13:01:00,
2013-06-29 09:06:00,66.6,64.2,-100.00,NNE,26,0.0,2.0,92,0.00,,,0.04,meteohub,2013-06-29 13:06:00,
2013-06-29 09:11:00,66.9,64.6,-100.00,West,272,0.0,2.0,92,0.00,,,0.04,meteohub,2013-06-29 13:11:00,
2013-06-29 09:16:00,67.6,64.9,-100.00,ENE,57,0.0,2.0,91,0.00,,,0.04,meteohub,2013-06-29 13:16:00,
2013-06-29 09:21:00,68.0,64.6,-100.00,WNW,298,2.0,2.0,89,0.00,,,0.04,meteohub,2013-06-29 13:21:00,
2013-06-29 09:27:00,68.4,64.9,-100.00,NNE,15,0.0,2.0,89,0.00,,,0.04,meteohub,2013-06-29 13:27:00,
2013-06-29 09:32:00,68.5,65.1,-100.00,WNW,283,1.0,3.0,89,0.00,,,0.04,meteohub,2013-06-29 13:32:00,
2013-06-29 09:37:00,68.4,64.4,-100.00,NW,319,1.0,3.0,87,0.00,,,0.04,meteohub,2013-06-29 13:37:00,
2013-06-29 09:42:00,68.4,64.6,-100.00,NW,307,0.0,3.0,88,0.00,,,0.04,meteohub,2013-06-29 13:42:00,
2013-06-29 09:47:00,68.5,64.2,-100.00,NW,309,0.0,3.0,86,0.00,,,0.04,meteohub,2013-06-29 13:47:00,
2013-06-29 09:52:00,68.4,64.4,-100.00,ENE,62,0.0,2.0,87,0.00,,,0.04,meteohub,2013-06-29 13:52:00,
2013-06-29 09:57:00,68.7,64.4,-100.00,NE,53,0.0,2.0,86,0.00,,,0.04,meteohub,2013-06-29 13:57:00,
2013-06-29 10:02:00,68.9,64.9,-100.00,NW,307,1.0,2.0,87,0.00,,,0.04,meteohub,2013-06-29 14:02:00,
2013-06-29 10:07:00,69.1,64.8,-100.00,NNW,340,0.0,2.0,86,0.00,,,0.04,meteohub,2013-06-29 14:07:00,
2013-06-29 10:12:00,69.3,64.6,-100.00,NNW,340,0.0,2.0,85,0.00,,,0.04,meteohub,2013-06-29 14:12:00,
2013-06-29 10:17:00,69.4,65.1,-100.00,WNW,290,4.0,4.0,86,0.00,,,0.04,meteohub,2013-06-29 14:17:00,
2013-06-29 10:22:00,69.3,64.9,-100.00,NW,321,0.0,6.0,86,0.00,,,0.04,meteohub,2013-06-29 14:22:00,
2013-06-29 10:27:00,69.4,64.8,-100.00,NNW,347,1.0,6.0,85,0.00,,,0.04,meteohub,2013-06-29 14:27:00,
2013-06-29 10:32:00,69.6,64.6,-100.00,North,8,0.0,6.0,84,0.00,,,0.04,meteohub,2013-06-29 14:32:00,
2013-06-29 10:37:00,69.6,64.2,-100.00,NW,317,1.0,4.0,83,0.00,,,0.04,meteohub,2013-06-29 14:37:00,
2013-06-29 10:42:00,69.4,64.0,-100.00,NW,325,1.0,4.0,83,0.00,,,0.04,meteohub,2013-06-29 14:42:00,
2013-06-29 10:47:00,69.4,64.0,-100.00,NW,324,2.0,4.0,83,0.00,,,0.04,meteohub,2013-06-29 14:47:00,
2013-06-29 10:52:00,69.3,63.5,-100.00,NW,321,1.0,4.0,82,0.00,,,0.04,meteohub,2013-06-29 14:52:00,
2013-06-29 10:57:00,69.4,64.4,-100.00,WNW,298,1.0,4.0,84,0.00,,,0.04,meteohub,2013-06-29 14:57:00,
2013-06-29 11:02:00,70.0,65.3,-100.00,NW,318,1.0,3.0,85,0.00,,,0.04,meteohub,2013-06-29 15:02:00,
2013-06-29 11:07:00,70.7,65.7,-100.00,NW,319,4.0,4.0,84,0.00,,,0.04,meteohub,2013-06-29 15:07:00,
2013-06-29 11:12:00,70.9,65.5,-100.00,NW,325,1.0,4.0,83,0.00,,,0.04,meteohub,2013-06-29 15:12:00,
2013-06-29 11:17:00,70.9,65.5,-100.00,NW,304,5.0,5.0,83,0.00,,,0.04,meteohub,2013-06-29 15:17:00,
2013-06-29 11:22:00,70.9,65.5,-100.00,NW,312,4.0,5.0,83,0.00,,,0.04,meteohub,2013-06-29 15:22:00,
2013-06-29 11:27:00,70.5,65.1,-100.00,WNW,300,6.0,6.0,83,0.00,,,0.04,meteohub,2013-06-29 15:27:00,
2013-06-29 11:32:00,70.7,66.0,-100.00,WNW,302,3.0,7.0,85,0.00,,,0.04,meteohub,2013-06-29 15:32:00,
2013-06-29 11:37:00,70.5,64.4,-100.00,NNE,21,2.0,7.0,81,0.00,,,0.04,meteohub,2013-06-29 15:37:00,
2013-06-29 11:42:00,70.5,65.1,-100.00,NW,319,2.0,7.0,83,0.00,,,0.04,meteohub,2013-06-29 15:42:00,
2013-06-29 11:47:00,70.9,65.1,-100.00,NE,39,1.0,6.0,82,0.00,,,0.04,meteohub,2013-06-29 15:47:00,
2013-06-29 11:52:00,70.9,65.1,-100.00,NW,325,5.0,5.0,82,0.00,,,0.04,meteohub,2013-06-29 15:52:00,
2013-06-29 11:57:00,70.9,65.5,-100.00,NNW,328,1.0,5.0,83,0.00,,,0.04,meteohub,2013-06-29 15:57:00,
2013-06-29 12:02:00,71.1,64.9,-100.00,WSW,250,1.0,5.0,81,0.00,,,0.04,meteohub,2013-06-29 16:02:00,
2013-06-29 12:07:00,71.2,65.8,-100.00,WNW,293,0.0,5.0,83,0.00,,,0.04,meteohub,2013-06-29 16:07:00,
2013-06-29 12:12:00,71.8,64.9,-100.00,NNW,333,1.0,4.0,79,0.00,,,0.04,meteohub,2013-06-29 16:12:00,
2013-06-29 12:17:00,71.8,65.7,-100.00,WNW,297,1.0,4.0,81,0.00,,,0.04,meteohub,2013-06-29 16:17:00,
2013-06-29 12:22:00,72.9,66.7,-100.00,ENE,65,1.0,4.0,81,0.00,,,0.04,meteohub,2013-06-29 16:22:00,
2013-06-29 12:27:00,72.7,65.5,-100.00,NW,321,2.0,4.0,78,0.00,,,0.04,meteohub,2013-06-29 16:27:00,
2013-06-29 12:33:00,72.3,65.1,-100.00,NNE,26,0.0,4.0,78,0.00,,,0.04,meteohub,2013-06-29 16:33:00,
2013-06-29 12:38:00,72.3,64.4,-100.00,NW,319,0.0,4.0,76,0.00,,,0.04,meteohub,2013-06-29 16:38:00,
2013-06-29 12:43:00,73.0,66.2,-100.00,NW,318,3.0,4.0,79,0.00,,,0.04,meteohub,2013-06-29 16:43:00,
2013-06-29 12:48:00,73.0,66.2,-100.00,NW,307,3.0,4.0,79,0.00,,,0.04,meteohub,2013-06-29 16:48:00,
2013-06-29 12:53:00,73.6,66.4,-100.00,NNW,347,1.0,4.0,78,0.00,,,0.04,meteohub,2013-06-29 16:53:00,
2013-06-29 12:58:00,73.2,63.7,-100.00,NW,311,0.0,6.0,72,0.00,,,0.04,meteohub,2013-06-29 16:58:00,
2013-06-29 13:03:00,72.7,64.2,-100.00,WNW,283,1.0,6.0,75,0.00,,,0.04,meteohub,2013-06-29 17:03:00,
2013-06-29 13:08:00,73.2,64.0,-100.00,WNW,297,1.0,6.0,73,0.00,,,0.04,meteohub,2013-06-29 17:08:00,
2013-06-29 13:13:00,72.9,63.7,-100.00,West,276,1.0,4.0,73,0.00,,,0.04,meteohub,2013-06-29 17:13:00,
2013-06-29 13:18:00,72.9,64.8,-100.00,SW,233,0.0,4.0,76,0.00,,,0.04,meteohub,2013-06-29 17:18:00,
2013-06-29 13:23:00,73.0,63.9,-100.00,WNW,285,2.0,4.0,73,0.00,,,0.04,meteohub,2013-06-29 17:23:00,
2013-06-29 13:28:00,72.9,64.0,-100.00,WNW,302,2.0,7.0,74,0.00,,,0.04,meteohub,2013-06-29 17:28:00,
2013-06-29 13:33:00,73.2,64.4,-100.00,WNW,282,1.0,7.0,74,0.00,,,0.04,meteohub,2013-06-29 17:33:00,
2013-06-29 13:38:00,73.6,65.5,-100.00,WNW,302,3.0,7.0,76,0.00,,,0.04,meteohub,2013-06-29 17:38:00,
2013-06-29 13:43:00,73.4,64.6,-100.00,WNW,285,0.0,7.0,74,0.00,,,0.04,meteohub,2013-06-29 17:43:00,
2013-06-29 13:48:00,73.9,65.5,-100.00,WSW,250,2.0,7.0,75,0.00,,,0.04,meteohub,2013-06-29 17:48:00,
2013-06-29 13:53:00,73.8,65.3,-100.00,West,274,2.0,7.0,75,0.00,,,0.04,meteohub,2013-06-29 17:53:00,
2013-06-29 13:58:00,73.8,64.2,-100.00,SW,227,3.0,6.0,72,0.00,,,0.04,meteohub,2013-06-29 17:58:00,
2013-06-29 14:03:00,73.9,65.5,-100.00,NW,318,3.0,6.0,75,0.00,,,0.04,meteohub,2013-06-29 18:03:00,
2013-06-29 14:08:00,74.1,63.7,-100.00,WNW,300,2.0,6.0,70,0.00,,,0.04,meteohub,2013-06-29 18:08:00,
2013-06-29 14:13:00,74.1,64.6,-100.00,WNW,300,3.0,5.0,72,0.00,,,0.04,meteohub,2013-06-29 18:13:00,
2013-06-29 14:18:00,74.7,65.8,-100.00,WNW,300,4.0,6.0,74,0.00,,,0.04,meteohub,2013-06-29 18:18:00,
2013-06-29 14:23:00,74.7,64.2,-100.00,NNW,335,2.0,6.0,70,0.00,,,0.04,meteohub,2013-06-29 18:23:00,
2013-06-29 14:28:00,74.7,63.9,-100.00,SW,231,1.0,6.0,69,0.00,,,0.04,meteohub,2013-06-29 18:28:00,
2013-06-29 14:33:00,74.7,64.6,-100.00,SW,227,3.0,5.0,71,0.00,,,0.04,meteohub,2013-06-29 18:33:00,
2013-06-29 14:38:00,75.0,64.2,-100.00,SW,224,0.0,5.0,69,0.00,,,0.04,meteohub,2013-06-29 18:38:00,
2013-06-29 14:43:00,75.9,63.7,-100.00,SW,214,0.0,5.0,66,0.00,,,0.04,meteohub,2013-06-29 18:43:00,
2013-06-29 14:48:00,76.3,66.2,-100.00,West,276,1.0,5.0,71,0.00,,,0.04,meteohub,2013-06-29 18:48:00,
2013-06-29 14:53:00,76.3,64.9,-100.00,WNW,294,2.0,4.0,68,0.00,,,0.04,meteohub,2013-06-29 18:53:00,
2013-06-29 14:59:00,75.7,65.7,-100.00,WNW,286,1.0,5.0,71,0.00,,,0.04,meteohub,2013-06-29 18:59:00,
2013-06-29 15:04:00,75.7,65.3,-100.00,WNW,290,3.0,5.0,70,0.00,,,0.04,meteohub,2013-06-29 19:04:00,
2013-06-29 15:09:00,75.7,65.3,-100.00,South,188,0.0,5.0,70,0.00,,,0.04,meteohub,2013-06-29 19:09:00,
2013-06-29 15:14:00,76.3,66.2,-100.00,WSW,249,1.0,5.0,71,0.00,,,0.04,meteohub,2013-06-29 19:14:00,
2013-06-29 15:19:00,76.3,65.3,-100.00,WSW,252,4.0,5.0,69,0.00,,,0.04,meteohub,2013-06-29 19:19:00,
2013-06-29 15:24:00,76.5,66.4,-100.00,WSW,250,2.0,6.0,71,0.00,,,0.04,meteohub,2013-06-29 19:24:00,
2013-06-29 15:29:00,76.5,66.4,-100.00,WNW,282,1.0,6.0,71,0.00,,,0.04,meteohub,2013-06-29 19:29:00,
2013-06-29 15:34:00,76.8,65.8,-100.00,SSW,194,2.0,6.0,69,0.00,,,0.04,meteohub,2013-06-29 19:34:00,
2013-06-29 15:39:00,77.2,65.3,-100.00,South,188,2.0,5.0,67,0.00,,,0.04,meteohub,2013-06-29 19:39:00,
2013-06-29 15:44:00,77.7,64.6,-100.00,SSW,197,0.0,7.0,64,0.00,,,0.04,meteohub,2013-06-29 19:44:00,
2013-06-29 15:49:00,78.4,66.2,-100.00,SW,219,3.0,7.0,66,0.00,,,0.04,meteohub,2013-06-29 19:49:00,
2013-06-29 15:54:00,78.6,64.9,-100.00,SSE,159,1.0,7.0,63,0.00,,,0.04,meteohub,2013-06-29 19:54:00,
2013-06-29 15:59:00,79.0,66.2,-100.00,WSW,245,1.0,6.0,65,0.00,,,0.04,meteohub,2013-06-29 19:59:00,
2013-06-29 16:04:00,78.1,65.3,-100.00,West,269,3.0,6.0,65,0.00,,,0.04,meteohub,2013-06-29 20:04:00,
2013-06-29 16:09:00,77.5,64.4,-100.00,WSW,250,0.0,6.0,64,0.00,,,0.04,meteohub,2013-06-29 20:09:00,
2013-06-29 16:14:00,77.4,65.1,-100.00,NW,309,2.0,4.0,66,0.00,,,0.04,meteohub,2013-06-29 20:14:00,
2013-06-29 16:19:00,77.0,64.8,-100.00,WNW,300,0.0,4.0,66,0.00,,,0.04,meteohub,2013-06-29 20:19:00,
2013-06-29 16:24:00,77.2,64.0,-100.00,ESE,122,1.0,3.0,64,0.00,,,0.04,meteohub,2013-06-29 20:24:00,
2013-06-29 16:29:00,77.4,64.8,-100.00,WNW,284,0.0,3.0,65,0.00,,,0.04,meteohub,2013-06-29 20:29:00,
2013-06-29 16:34:00,78.3,66.0,-100.00,ENE,72,0.0,3.0,66,0.00,,,0.04,meteohub,2013-06-29 20:34:00,
2013-06-29 16:39:00,78.8,64.8,-100.00,WNW,300,3.0,3.0,62,0.00,,,0.04,meteohub,2013-06-29 20:39:00,
2013-06-29 16:44:00,78.6,63.1,-100.00,WSW,257,0.0,4.0,59,0.00,,,0.04,meteohub,2013-06-29 20:44:00,
2013-06-29 16:49:00,79.5,65.8,-100.00,NW,306,1.0,4.0,63,0.00,,,0.04,meteohub,2013-06-29 20:49:00,
2013-06-29 16:54:00,79.7,63.7,-100.00,SW,233,1.0,4.0,58,0.00,,,0.04,meteohub,2013-06-29 20:54:00,
2013-06-29 16:59:00,79.5,64.9,-100.00,SSE,149,0.0,4.0,61,0.00,,,0.04,meteohub,2013-06-29 20:59:00,
2013-06-29 17:04:00,80.4,65.7,-100.00,WSW,252,0.0,4.0,61,0.00,,,0.04,meteohub,2013-06-29 21:04:00,
2013-06-29 17:10:00,80.8,64.6,-100.00,SW,219,4.0,4.0,58,0.00,,,0.04,meteohub,2013-06-29 21:10:00,
2013-06-29 17:15:00,80.1,64.9,-100.00,SW,235,0.0,5.0,60,0.00,,,0.04,meteohub,2013-06-29 21:15:00,
2013-06-29 17:20:00,80.4,64.8,-100.00,SW,224,1.0,5.0,59,0.00,,,0.04,meteohub,2013-06-29 21:20:00,
2013-06-29 17:25:00,80.4,65.7,-100.00,SSW,203,2.0,5.0,61,0.00,,,0.04,meteohub,2013-06-29 21:25:00,
2013-06-29 17:30:00,80.4,63.9,-100.00,SSW,207,0.0,4.0,57,0.00,,,0.04,meteohub,2013-06-29 21:30:00,
2013-06-29 17:35:00,79.9,63.3,-100.00,SSE,160,0.0,4.0,57,0.00,,,0.04,meteohub,2013-06-29 21:35:00,
2013-06-29 17:40:00,79.0,63.9,-100.00,WSW,241,2.0,4.0,60,0.00,,,0.04,meteohub,2013-06-29 21:40:00,
2013-06-29 17:45:00,78.3,63.7,-100.00,SSW,196,1.0,3.0,61,0.00,,,0.04,meteohub,2013-06-29 21:45:00,
2013-06-29 17:50:00,78.1,63.5,-100.00,WSW,242,1.0,3.0,61,0.00,,,0.04,meteohub,2013-06-29 21:50:00,
2013-06-29 17:55:00,77.5,64.4,-100.00,SW,231,1.0,3.0,64,0.00,,,0.04,meteohub,2013-06-29 21:55:00,
2013-06-29 18:00:00,77.2,64.9,-100.00,SW,214,0.0,3.0,66,0.00,,,0.04,meteohub,2013-06-29 22:00:00,
2013-06-29 18:05:00,76.8,65.5,-100.00,SW,218,3.0,3.0,68,0.00,,,0.04,meteohub,2013-06-29 22:05:00,
2013-06-29 18:10:00,76.3,66.6,-100.00,SSW,196,4.0,5.0,72,0.00,,,0.04,meteohub,2013-06-29 22:10:00,
2013-06-29 18:15:00,75.6,67.1,-100.00,SW,233,3.0,8.0,75,0.00,,,0.04,meteohub,2013-06-29 22:15:00,
2013-06-29 18:20:00,75.0,66.9,-100.00,SSW,210,4.0,8.0,76,0.00,,,0.04,meteohub,2013-06-29 22:20:00,
2013-06-29 18:25:00,74.7,66.6,-100.00,SW,227,2.0,6.0,76,0.00,,,0.04,meteohub,2013-06-29 22:25:00,
2013-06-29 18:30:00,74.3,66.6,-100.00,SSW,209,1.0,7.0,77,0.00,,,0.04,meteohub,2013-06-29 22:30:00,
2013-06-29 18:35:00,73.9,66.2,-100.00,WSW,251,3.0,7.0,77,0.00,,,0.04,meteohub,2013-06-29 22:35:00,
2013-06-29 18:40:00,73.6,66.7,-100.00,SSW,203,3.0,7.0,79,0.00,,,0.04,meteohub,2013-06-29 22:40:00,
2013-06-29 18:45:00,73.6,66.7,-100.00,SSW,206,3.0,6.0,79,0.00,,,0.04,meteohub,2013-06-29 22:45:00,
2013-06-29 18:50:00,73.2,66.0,-100.00,SW,236,2.0,6.0,78,0.00,,,0.04,meteohub,2013-06-29 22:50:00,
2013-06-29 18:55:00,73.2,66.4,-100.00,South,176,0.0,6.0,79,0.00,,,0.04,meteohub,2013-06-29 22:55:00,
2013-06-29 19:00:00,73.2,66.7,-100.00,WSW,239,1.0,6.0,80,0.00,,,0.04,meteohub,2013-06-29 23:00:00,
2013-06-29 19:05:00,73.0,66.2,-100.00,SSW,193,2.0,4.0,79,0.00,,,0.04,meteohub,2013-06-29 23:05:00,
2013-06-29 19:10:00,72.9,66.4,-100.00,SW,224,2.0,4.0,80,0.00,,,0.04,meteohub,2013-06-29 23:10:00,
2013-06-29 19:15:00,72.7,66.2,-100.00,SW,236,2.0,5.0,80,0.00,,,0.04,meteohub,2013-06-29 23:15:00,
2013-06-29 19:20:00,72.3,66.2,-100.00,SW,226,1.0,5.0,81,0.00,,,0.04,meteohub,2013-06-29 23:20:00,
2013-06-29 19:26:00,72.0,66.6,-100.00,SW,214,1.0,5.0,83,0.00,,,0.04,meteohub,2013-06-29 23:26:00,
2013-06-29 19:31:00,71.8,66.4,-100.00,WSW,256,1.0,4.0,83,0.00,,,0.04,meteohub,2013-06-29 23:31:00,
2013-06-29 19:36:00,71.2,66.2,-100.00,WNW,286,2.0,4.0,84,0.00,,,0.04,meteohub,2013-06-29 23:36:00,
2013-06-29 19:41:00,70.7,63.9,-100.00,NW,313,6.0,10.0,79,0.00,,,0.04,meteohub,2013-06-29 23:41:00,
2013-06-29 19:46:00,69.8,63.3,-100.00,NW,323,3.0,10.0,80,0.01,,,0.05,meteohub,2013-06-29 23:46:00,
2013-06-29 19:51:00,68.5,63.5,-100.00,NNW,335,2.0,10.0,84,0.04,,,0.08,meteohub,2013-06-29 23:51:00,
2013-06-29 19:56:00,67.6,63.3,-100.00,NNE,23,0.0,10.0,86,0.05,,,0.09,meteohub,2013-06-29 23:56:00,
2013-06-29 20:01:00,67.3,63.7,-100.00,NNE,27,0.0,7.0,88,0.05,,,0.09,meteohub,2013-06-30 00:01:00,
2013-06-29 20:06:00,67.1,63.5,-100.00,NE,34,1.0,3.0,88,0.05,,,0.09,meteohub,2013-06-30 00:06:00,
2013-06-29 20:11:00,67.1,63.7,-100.00,ENE,74,0.0,3.0,89,0.05,,,0.09,meteohub,2013-06-30 00:11:00,
2013-06-29 20:16:00,66.9,63.3,-100.00,NNW,338,0.0,3.0,88,0.05,,,0.09,meteohub,2013-06-30 00:16:00,
2013-06-29 20:21:00,66.9,63.3,-100.00,NE,35,0.0,3.0,88,0.05,,,0.09,meteohub,2013-06-30 00:21:00,
2013-06-29 20:26:00,66.9,63.5,-100.00,NE,35,0.0,2.0,89,0.05,,,0.09,meteohub,2013-06-30 00:26:00,
2013-06-29 20:31:00,66.9,63.9,-100.00,NNW,328,0.0,2.0,90,0.05,,,0.09,meteohub,2013-06-30 00:31:00,
2013-06-29 20:36:00,66.7,63.7,-100.00,NW,318,0.0,1.0,90,0.05,,,0.09,meteohub,2013-06-30 00:36:00,
2013-06-29 20:41:00,66.7,63.3,-100.00,NNW,336,0.0,1.0,89,0.05,,,0.09,meteohub,2013-06-30 00:41:00,
2013-06-29 20:46:00,66.7,63.3,-100.00,NNW,336,0.0,1.0,89,0.03,,,0.09,meteohub,2013-06-30 00:46:00,
2013-06-29 20:51:00,66.6,63.5,-100.00,North,357,0.0,1.0,90,0.01,,,0.09,meteohub,2013-06-30 00:51:00,
2013-06-29 20:56:00,66.4,63.3,-100.00,North,356,0.0,1.0,90,0.00,,,0.09,meteohub,2013-06-30 00:56:00,
2013-06-29 21:01:00,66.4,63.3,-100.00,North,356,0.0,1.0,90,0.00,,,0.09,meteohub,2013-06-30 01:01:00,
2013-06-29 21:06:00,66.4,63.7,-100.00,North,356,0.0,1.0,91,0.00,,,0.09,meteohub,2013-06-30 01:06:00,
2013-06-29 21:11:00,66.4,63.7,-100.00,North,356,0.0,1.0,91,0.00,,,0.09,meteohub,2013-06-30 01:11:00,
2013-06-29 21:16:00,66.0,63.0,-100.00,North,356,0.0,1.0,90,0.00,,,0.09,meteohub,2013-06-30 01:16:00,
2013-06-29 21:21:00,66.0,62.6,-100.00,NW,321,0.0,2.0,89,0.00,,,0.09,meteohub,2013-06-30 01:21:00,
2013-06-29 21:26:00,66.0,62.6,-100.00,NW,321,0.0,2.0,89,0.00,,,0.09,meteohub,2013-06-30 01:26:00,
2013-06-29 21:31:00,66.0,62.4,-100.00,NNW,328,0.0,2.0,88,0.00,,,0.09,meteohub,2013-06-30 01:31:00,
2013-06-29 21:36:00,66.0,62.4,-100.00,NW,320,0.0,2.0,88,0.00,,,0.09,meteohub,2013-06-30 01:36:00,
2013-06-29 21:41:00,66.0,62.6,-100.00,NW,320,0.0,2.0,89,0.00,,,0.09,meteohub,2013-06-30 01:41:00,
2013-06-29 21:46:00,65.8,62.4,-100.00,NW,317,1.0,2.0,89,0.00,,,0.09,meteohub,2013-06-30 01:46:00,
2013-06-29 21:51:00,65.8,62.2,-100.00,North,350,0.0,1.0,88,0.00,,,0.09,meteohub,2013-06-30 01:51:00,
2013-06-29 21:56:00,65.7,62.1,-100.00,NW,319,0.0,3.0,88,0.00,,,0.09,meteohub,2013-06-30 01:56:00,
2013-06-29 22:01:00,65.7,62.2,-100.00,NW,319,0.0,3.0,89,0.00,,,0.09,meteohub,2013-06-30 02:01:00,
2013-06-29 22:06:00,65.5,62.2,-100.00,NW,319,0.0,3.0,89,0.00,,,0.09,meteohub,2013-06-30 02:06:00,
2013-06-29 22:11:00,65.1,62.1,-100.00,NW,319,0.0,1.0,90,0.00,,,0.09,meteohub,2013-06-30 02:11:00,
2013-06-29 22:16:00,64.9,61.9,-100.00,NW,319,0.0,0.0,90,0.00,,,0.09,meteohub,2013-06-30 02:16:00,
2013-06-29 22:21:00,64.6,61.5,-100.00,NW,319,0.0,0.0,90,0.00,,,0.09,meteohub,2013-06-30 02:21:00,
2013-06-29 22:26:00,64.4,61.7,-100.00,NW,319,0.0,0.0,91,0.00,,,0.09,meteohub,2013-06-30 02:26:00,
2013-06-29 22:31:00,64.2,61.5,-100.00,NW,319,0.0,0.0,91,0.00,,,0.09,meteohub,2013-06-30 02:31:00,
2013-06-29 22:36:00,63.9,61.2,-100.00,NW,319,0.0,0.0,91,0.00,,,0.09,meteohub,2013-06-30 02:36:00,
2013-06-29 22:41:00,63.7,61.3,-100.00,NW,319,0.0,0.0,92,0.00,,,0.09,meteohub,2013-06-30 02:41:00,
2013-06-29 22:46:00,63.3,61.0,-100.00,NW,319,0.0,0.0,92,0.00,,,0.09,meteohub,2013-06-30 02:46:00,
2013-06-29 22:51:00,63.1,61.2,-100.00,NW,319,0.0,0.0,93,0.00,,,0.09,meteohub,2013-06-30 02:51:00,
2013-06-29 22:57:00,63.0,61.0,-100.00,NW,319,0.0,0.0,93,0.00,,,0.09,meteohub,2013-06-30 02:57:00,
2013-06-29 23:02:00,62.8,60.8,-100.00,NW,319,0.0,0.0,93,0.00,,,0.09,meteohub,2013-06-30 03:02:00,
2013-06-29 23:07:00,62.8,61.0,-100.00,NW,319,0.0,0.0,94,0.00,,,0.09,meteohub,2013-06-30 03:07:00,
2013-06-29 23:12:00,62.6,60.8,-100.00,NW,319,0.0,0.0,94,0.00,,,0.09,meteohub,2013-06-30 03:12:00,
2013-06-29 23:17:00,62.6,60.8,-100.00,NW,319,0.0,0.0,94,0.00,,,0.09,meteohub,2013-06-30 03:17:00,
2013-06-29 23:22:00,62.6,61.2,-100.00,NW,319,0.0,0.0,95,0.00,,,0.09,meteohub,2013-06-30 03:22:00,
2013-06-29 23:27:00,62.8,61.3,-100.00,NW,319,0.0,0.0,95,0.00,,,0.09,meteohub,2013-06-30 03:27:00,
2013-06-29 23:32:00,62.6,61.2,-100.00,NW,319,0.0,0.0,95,0.00,,,0.09,meteohub,2013-06-30 03:32:00,
2013-06-29 23:37:00,62.4,61.0,-100.00,NW,319,0.0,0.0,95,0.00,,,0.09,meteohub,2013-06-30 03:37:00,
2013-06-29 23:42:00,62.1,60.6,-100.00,NW,319,0.0,0.0,95,0.00,,,0.09,meteohub,2013-06-30 03:42:00,
2013-06-29 23:47:00,61.9,60.4,-100.00,NW,319,0.0,0.0,95,0.00,,,0.09,meteohub,2013-06-30 03:47:00,
2013-06-29 23:52:00,61.9,60.4,-100.00,NW,319,0.0,0.0,95,0.00,,,0.09,meteohub,2013-06-30 03:52:00,
2013-06-29 23:57:00,61.7,60.3,-100.00,NW,319,0.0,0.0,95,0.00,,,0.09,meteohub,2013-06-30 03:57:00,